Temp
-5 -5 -5 -5 -5 -5 -5 -5 -5 -5 -5 -5 -5 -5 -5 -5 -5 -5 -5 -4 -4 -4 -4 -4 -5 -5 -5 -5 -5 -5 -5 -5 -5 -6 -6 -6 -6 -5 -6 -6 -6 -6
-5 -5 -5 -5 -5 -5 -5 -5 -5 -5 -5 -4 -4 -4 -4 -4 -4 -4 -4 -4 -4 -4 -4 -4 -5 -5 -5 -5 -5 -5 -5 -5 -5 -6 -6 -6 -6 -6 -5 -5 -5 -5
-5 -5 -5 -5 -5 -5 -5 -5 -5 -5 -5 -4 -4 -4 -4 -4 -4 -4 -4 -4 -4 -4 -4 -5 -5 -5 -5 -5 -5 -5 -5 -5 -5 -5 -6 -6 -6 -5 -5 -5 -5 -5
-4 -5 -5 -5 -5 -5 -5 -5 -5 -5 -5 -5 -5 -5 -4 -4 -4 -4 -4 -4 -4 -4 -4 -4 -5 -5 -5 -5 -5 -5 -5 -5 -5 -5 -6 -6 -6 -5 -5 -5 -5 -5
-4 -5 -5 -5 -5 -5 -5 -5 -5 -5 -5 -5 -5 -5 -4 -4 -4 -4 -4 -4 -4 -4 -4 -4 -5 -5 -5 -5 -5 -5 -5 -5 -5 -5 -6 -6 -6 -6 -6 -6 -5 -5
-4 -4 -5 -5 -5 -5 -5 -5 -5 -5 -5 -5 -5 -5 -5 -4 -4 -4 -4 -4 -4 -4 -4 -4 -4 -5 -5 -5 -5 -5 -5 -5 -5 -5 -6 -6 -6 -6 -6 -6 -6 -6
-4 -4 -4 -5 -4 -5 -5 -5 -5 -5 -5 -5 -5 -5 -5 -5 -4 -4 -4 -4 -4 -4 -4 -4 -4 -5 -5 -5 -5 -5 -5 -5 -5 -6 -6 -6 -6 -6 -6 -6 -6 -6
-4 -4 -4 -4 -4 -5 -5 -5 -5 -5 -5 -5 -5 -5 -5 -5 -5 -4 -4 -4 -4 -4 -4 -4 -4 -4 -5 -5 -5 -5 -5 -5 -5 -6 -6 -6 -6 -6 -6 -6 -6 -6
-4 -4 -4 -4 -4 -4 -5 -5 -5 -5 -5 -5 -5 -5 -5 -5 -5 -4 -4 -4 -4 -4 -4 -4 -4 -4 -5 -5 -5 -5 -5 -5 -5 -5 -6 -6 -6 -6 -6 -6 -6 -6
-4 -4 -4 -4 -4 -4 -5 -5 -5 -5 -5 -5 -5 -5 -5 -5 -5 -4 -4 -4 -4 -4 -4 -4 -4 -4 -4 -5 -5 -5 -5 -5 -5 -5 -5 -5 -5 -6 -6 -6 -6 -6
-4 -4 -4 -4 -4 -4 -4 -5 -5 -5 -5 -5 -5 -5 -5 -5 -4 -4 -4 -4 -4 -4 -4 -4 -4 -4 -4 -5 -5 -5 -5 -5 -5 -5 -5 -5 -5 -5 -5 -6 -6 -6
-4 -4 -4 -4 -4 -4 -4 -4 -4 -4 -5 -5 -5 -5 -5 -5 -5 -4 -4 -4 -4 -4 -4 -4 -4 -4 -4 -4 -5 -5 -5 -5 -5 -5 -5 -5 -5 -5 -5 -5 -6 -6
-5 -4 -4 -4 -4 -4 -4 -4 -4 -4 -5 -5 -5 -5 -5 -5 -5 -5 -5 -5 -4 -4 -4 -4 -4 -4 -4 -4 -5 -5 -5 -5 -5 -5 -5 -5 -6 -5 -5 -5 -5 -6
-5 -5 -5 -5 -4 -4 -4 -4 -4 -4 -4 -5 -5 -5 -5 -5 -5 -5 -5 -5 -5 -5 -5 -4 -4 -4 -4 -5 -5 -5 -5 -5 -5 -5 -5 -5 -5 -5 -5 -5 -5 -5
-5 -5 -5 -5 -4 -4 -4 -4 -4 -4 -4 -4 -5 -5 -5 -5 -5 -5 -5 -5 -5 -5 -5 -5 -5 -5 -5 -5 -5 -5 -5 -5 -5 -5 -5 -5 -5 -5 -5 -5 -5 -5
-5 -5 -5 -5 -4 -4 -4 -4 -4 -4 -4 -4 -4 -5 -5 -5 -5 -5 -5 -5 -5 -5 -5 -5 -5 -5 -5 -5 -5 -5 -5 -5 -5 -5 -5 -5 -5 -5 -5 -5 -5 -5
-5 -5 -5 -5 -5 -5 -5 -4 -4 -4 -4 -4 -4 -4 -5 -5 -5 -5 -5 -5 -5 -5 -5 -5 -5 -5 -5 -5 -5 -5 -5 -5 -5 -5 -5 -5 -5 -5 -5 -5 -5 -5
-5 -5 -5 -5 -5 -5 -5 -5 -4 -4 -4 -4 -4 -4 -4 -5 -5 -5 -5 -5 -5 -5 -5 -5 -5 -5 -5 -5 -5 -5 -5 -5 -5 -5 -5 -5 -5 -5 -5 -5 -5 -5
-5 -5 -4 -5 -5 -5 -5 -4 -4 -4 -4 -4 -4 -4 -4 -4 -5 -5 -5 -5 -5 -5 -5 -5 -5 -5 -5 -5 -5 -5 -5 -5 -5 -5 -5 -5 -5 -5 -5 -5 -5 -5
-6 -6 -5 -5 -5 -5 -5 -4 -4 -4 -4 -4 -4 -4 -4 -4 -4 -4 -5 -5 -5 -5 -5 -5 -5 -5 -5 -5 -5 -5 -5 -5 -5 -5 -5 -5 -5 -5 -5 -5 -5 -5
-6 -6 -6 -5 -5 -5 -5 -5 -5 -4 -4 -4 -4 -4 -4 -4 -4 -4 -5 -5 -5 -5 -5 -5 -5 -5 -5 -5 -5 -5 -5 -5 -5 -5 -5 -5 -5 -5 -5 -5 -5 -5
-7 -6 -6 -6 -5 -5 -5 -5 -5 -5 -5 -4 -4 -5 -5 -4 -4 -4 -5 -5 -5 -5 -5 -5 -5 -5 -5 -5 -5 -5 -5 -5 -5 -5 -5 -5 -5 -5 -5 -5 -5 -5
-7 -6 -6 -6 -6 -5 -5 -5 -5 -5 -5 -5 -5 -5 -5 -5 -5 -5 -5 -5 -5 -5 -5 -5 -5 -5 -5 -5 -5 -5 -5 -5 -5 -5 -5 -5 -5 -5 -5 -5 -5 -5
-7 -6 -6 -6 -6 -5 -5 -5 -5 -5 -5 -5 -5 -5 -5 -5 -5 -5 -5 -5 -5 -5 -5 -5 -5 -5 -5 -5 -5 -5 -5 -5 -5 -5 -5 -5 -5 -5 -5 -5 -5 -5
-6 -6 -6 -6 -6 -6 -5 -5 -5 -5 -5 -5 -5 -5 -5 -5 -5 -5 -5 -5 -5 -5 -5 -5 -5 -5 -5 -5 -5 -5 -5 -5 -5 -5 -5 -5 -5 -5 -5 -5 -5 -5
-6 -6 -5 -5 -6 -6 -5 -5 -5 -5 -5 -5 -5 -5 -5 -5 -5 -5 -5 -5 -5 -5 -6 -6 -6 -5 -5 -5 -5 -5 -5 -5 -5 -5 -5 -5 -5 -5 -5 -6 -5 -5
Height
5939 5941 5942 5943 5944 5945 5946 5947 5948 5949 5950 5951 5952 5953 5954 5956 5956 5957 5958 5958 5959 5960 5960 5961 5962 5963 5963 5964 5964 5965 5965 5966 5966 5966 5965 5965 5965 5965 5964 5964 5964 5964
5938 5940 5941 5943 5944 5945 5946 5947 5948 5948 5949 5950 5952 5953 5954 5955 5956 5957 5957 5958 5959 5960 5960 5961 5962 5963 5963 5964 5964 5965 5966 5966 5967 5966 5966 5966 5966 5966 5965 5965 5965 5964
5937 5939 5940 5942 5943 5945 5946 5946 5947 5948 5949 5950 5951 5952 5953 5954 5955 5956 5957 5958 5959 5960 5961 5961 5962 5963 5964 5964 5965 5966 5967 5967 5967 5967 5967 5967 5967 5967 5966 5966 5965 5965
5937 5938 5939 5940 5942 5943 5945 5946 5947 5948 5949 5950 5951 5951 5953 5954 5955 5955 5956 5957 5958 5959 5960 5961 5962 5963 5964 5965 5965 5966 5967 5967 5968 5968 5968 5968 5967 5967 5967 5967 5966 5966
5936 5937 5938 5939 5941 5942 5944 5945 5947 5947 5948 5949 5950 5951 5952 5953 5954 5955 5955 5957 5958 5959 5960 5961 5962 5963 5964 5965 5966 5966 5967 5967 5968 5968 5968 5968 5968 5968 5968 5968 5967 5966
5935 5937 5938 5939 5940 5941 5943 5944 5945 5947 5948 5949 5949 5950 5951 5952 5953 5954 5955 5956 5957 5958 5959 5960 5961 5962 5963 5964 5965 5966 5967 5967 5968 5968 5968 5968 5968 5968 5968 5968 5968 5967
5934 5936 5937 5938 5939 5941 5942 5943 5944 5946 5947 5948 5949 5950 5950 5951 5952 5953 5954 5956 5957 5958 5959 5960 5961 5962 5963 5964 5965 5966 5967 5967 5968 5968 5968 5968 5968 5968 5968 5968 5968 5968
5932 5934 5936 5937 5938 5940 5941 5942 5943 5944 5946 5947 5949 5949 5950 5951 5951 5952 5954 5955 5957 5958 5959 5960 5961 5962 5963 5964 5965 5966 5966 5967 5967 5968 5968 5968 5968 5968 5968 5968 5968 5968
5930 5932 5934 5936 5938 5939 5940 5941 5942 5943 5944 5946 5947 5948 5949 5950 5951 5952 5953 5955 5956 5957 5958 5959 5961 5962 5962 5963 5964 5965 5966 5966 5967 5967 5968 5968 5968 5968 5968 5968 5968 5968
5927 5930 5933 5935 5937 5938 5939 5939 5940 5941 5943 5944 5945 5947 5948 5949 5951 5952 5953 5954 5955 5957 5958 5959 5960 5961 5962 5962 5963 5964 5965 5966 5966 5967 5967 5967 5968 5968 5968 5968 5968 5968
5925 5928 5931 5933 5935 5936 5937 5938 5939 5940 5941 5942 5944 5945 5947 5948 5949 5951 5952 5953 5954 5955 5956 5958 5958 5959 5960 5961 5962 5963 5964 5965 5965 5966 5966 5967 5967 5967 5967 5967 5967 5967
5922 5925 5928 5930 5932 5933 5935 5936 5937 5939 5940 5941 5942 5943 5945 5946 5948 5949 5950 5952 5953 5954 5955 5956 5957 5958 5959 5960 5961 5962 5963 5963 5964 5964 5965 5965 5966 5966 5966 5967 5967 5966
5919 5921 5924 5926 5928 5930 5932 5933 5935 5937 5938 5939 5940 5941 5943 5944 5946 5947 5948 5950 5951 5952 5953 5954 5955 5956 5957 5959 5960 5960 5961 5962 5963 5963 5964 5964 5964 5965 5965 5965 5966 5966
5916 5918 5920 5922 5924 5926 5928 5930 5932 5934 5936 5937 5938 5939 5940 5942 5943 5945 5946 5947 5949 5950 5951 5952 5954 5955 5956 5957 5958 5959 5959 5960 5961 5962 5962 5963 5963 5963 5964 5964 5964 5964
5912 5914 5917 5919 5920 5923 5925 5927 5929 5931 5933 5934 5936 5937 5938 5939 5941 5942 5944 5945 5946 5948 5950 5951 5952 5953 5954 5955 5956 5957 5958 5958 5959 5960 5960 5961 5962 5962 5962 5963 5963 5963
5909 5911 5913 5916 5918 5920 5922 5924 5926 5928 5930 5932 5933 5935 5936 5937 5938 5939 5941 5943 5944 5946 5947 5949 5950 5951 5952 5952 5954 5955 5955 5956 5957 5958 5958 5959 5960 5960 5961 5961 5961 5962
5907 5909 5911 5913 5916 5918 5919 5921 5923 5925 5927 5929 5930 5931 5933 5934 5935 5937 5939 5940 5942 5943 5945 5946 5948 5949 5949 5950 5951 5952 5953 5954 5955 5956 5956 5957 5958 5959 5959 5959 5960 5960
5907 5909 5911 5912 5914 5915 5917 5919 5920 5922 5924 5926 5927 5929 5930 5931 5933 5934 5936 5937 5939 5941 5943 5944 5945 5946 5947 5948 5949 5950 5951 5952 5952 5953 5954 5955 5956 5957 5957 5958 5958 5959
5907 5909 5911 5912 5913 5914 5915 5916 5918 5920 5922 5924 5925 5926 5927 5928 5930 5931 5933 5934 5936 5938 5940 5942 5943 5943 5944 5945 5946 5947 5948 5949 5950 5951 5952 5952 5953 5954 5955 5956 5956 5957
5904 5906 5908 5910 5912 5913 5914 5915 5917 5919 5920 5921 5922 5923 5925 5926 5927 5928 5930 5931 5933 5935 5936 5938 5940 5941 5942 5943 5944 5945 5946 5947 5947 5948 5949 5950 5951 5951 5952 5953 5954 5955
5900 5901 5904 5906 5909 5911 5912 5914 5915 5916 5917 5918 5920 5921 5923 5924 5924 5925 5926 5928 5929 5931 5933 5935 5937 5938 5939 5940 5941 5942 5943 5944 5945 5945 5946 5947 5948 5949 5950 5950 5951 5952
5898 5899 5901 5903 5906 5909 5911 5913 5913 5914 5915 5915 5917 5918 5919 5920 5921 5922 5923 5924 5926 5927 5929 5931 5933 5934 5935 5937 5938 5939 5940 5941 5942 5943 5944 5944 5945 5946 5947 5947 5948 5949
5896 5897 5899 5901 5903 5906 5909 5910 5911 5912 5912 5912 5913 5915 5916 5917 5918 5919 5920 5921 5922 5923 5925 5928 5929 5930 5932 5933 5934 5935 5936 5938 5939 5940 5941 5942 5943 5943 5944 5944 5945 5946
5892 5894 5896 5898 5900 5903 5905 5907 5908 5908 5909 5910 5911 5911 5912 5913 5914 5915 5916 5917 5919 5920 5922 5923 5925 5926 5928 5929 5930 5931 5933 5935 5936 5937 5938 5939 5940 5940 5941 5941 5941 5942
5889 5891 5893 5895 5898 5900 5901 5903 5904 5905 5906 5908 5909 5909 5909 5910 5911 5912 5914 5915 5916 5917 5918 5919 5921 5922 5924 5925 5926 5928 5929 5931 5932 5934 5935 5936 5937 5938 5938 5938 5938 5938
5885 5888 5891 5892 5894 5896 5898 5899 5900 5901 5903 5905 5906 5907 5907 5907 5908 5910 5911 5913 5914 5915 5915 5916 5918 5919 5920 5921 5923 5924 5926 5927 5928 5930 5931 5933 5933 5934 5934 5934 5934 5934
Wind_Speed
17 16 15 14 15 14 14 13 12 12 11 11 11 11 11 11 11 11 11 10 9 9 8 8 8 9 11 12 13 13 12 11 10 9 8 8 8 8 8 7 7 7
18 17 16 15 14 14 14 14 14 13 12 12 11 11 12 12 12 12 11 10 10 9 8 8 8 9 11 13 13 13 12 11 10 9 9 8 8 7 7 7 7 6
18 17 17 16 15 15 16 16 15 15 14 13 12 12 12 12 12 12 12 11 10 9 8 8 8 10 12 13 13 13 12 11 10 9 9 8 8 7 7 7 7 7
19 18 17 17 17 16 16 16 16 16 15 15 14 13 13 12 12 12 12 11 10 9 8 8 9 10 12 13 13 13 12 11 10 10 9 8 8 7 7 7 7 7
20 19 18 18 17 17 16 16 16 16 16 16 16 15 14 13 13 12 12 11 9 9 8 8 9 10 12 13 12 12 12 11 11 10 10 9 8 8 7 6 6 6
21 20 19 19 18 17 16 16 16 16 16 16 16 16 15 15 14 13 12 11 9 8 7 8 9 10 11 12 12 12 12 11 11 10 10 9 8 8 7 6 5 5
23 22 20 20 19 18 17 17 16 16 16 16 16 16 16 15 15 14 13 11 9 8 7 7 8 9 10 11 12 12 12 11 10 9 9 9 8 8 7 6 5 4
24 24 22 22 20 19 18 17 16 16 16 16 16 16 16 16 15 15 13 11 9 8 7 7 7 8 9 10 11 12 12 11 10 9 8 7 7 7 6 6 5 4
26 25 24 23 21 20 19 18 17 17 17 16 16 16 16 15 15 14 13 11 9 8 7 7 7 8 8 9 9 10 11 11 10 9 8 6 5 5 5 5 4 3
27 26 25 24 22 21 21 20 19 18 17 17 17 17 16 16 15 14 13 11 10 9 8 8 8 8 8 9 9 9 10 10 9 9 7 6 5 4 3 3 3 3
26 26 25 24 24 23 23 22 21 19 18 17 17 17 17 17 16 15 14 13 12 11 10 9 9 10 10 9 9 9 9 9 8 8 7 6 4 3 2 2 1 1
25 25 25 26 26 25 25 25 23 21 20 18 17 17 17 17 17 16 16 15 14 13 12 11 11 11 11 10 9 9 8 8 8 8 7 6 4 3 2 2 1 1
24 25 26 27 28 28 28 27 25 24 22 21 19 18 18 17 16 16 16 16 16 15 14 13 12 12 11 10 9 9 9 9 8 8 8 7 6 5 4 3 3 2
24 26 27 28 29 30 30 29 27 26 25 23 22 20 19 18 17 17 17 17 16 16 15 14 13 12 11 11 10 10 10 10 9 9 9 9 8 8 6 5 5 4
25 26 27 28 30 31 31 30 29 28 27 26 24 22 21 20 19 18 18 17 17 16 16 15 13 13 13 12 12 12 12 12 11 10 9 9 10 9 8 7 6 6
25 27 28 29 29 30 30 31 31 31 30 28 26 25 24 22 21 20 18 18 17 17 16 15 15 15 15 15 15 14 14 13 13 12 12 11 11 11 11 10 9 8
24 27 28 28 28 29 30 31 32 32 31 30 29 28 26 25 24 22 20 20 19 18 17 16 16 16 17 17 17 16 16 15 15 14 14 14 13 13 13 12 11 10
20 23 26 27 28 29 29 30 32 32 32 32 31 30 28 27 26 24 23 23 22 20 19 17 17 18 19 19 18 18 17 17 17 16 16 15 15 15 15 14 14 13
13 15 21 25 27 28 29 30 31 31 31 31 31 31 30 29 28 27 26 25 24 23 21 20 19 19 19 19 19 19 18 18 18 18 17 17 17 17 16 16 16 15
13 13 17 24 28 29 30 30 29 29 30 30 31 31 31 29 28 28 27 26 26 25 25 23 22 21 21 20 20 20 19 19 19 20 19 19 18 18 18 18 18 18
18 16 17 22 27 30 29 28 28 29 29 29 29 29 29 29 29 28 28 27 27 27 27 26 24 24 23 22 21 20 20 20 20 21 21 21 20 20 20 20 20 20
21 20 18 20 25 29 29 27 28 29 29 29 29 28 28 29 29 28 27 27 27 27 27 26 26 26 25 24 23 22 21 20 20 20 21 21 21 22 22 22 22 21
24 23 21 20 23 27 28 29 29 30 30 30 30 28 28 27 27 27 27 27 27 27 27 26 27 27 27 26 26 25 24 22 20 20 21 21 22 23 23 24 24 23
28 27 25 22 23 26 29 31 31 31 31 31 30 29 28 28 28 28 28 28 27 26 26 26 27 27 28 28 28 28 27 25 23 22 21 21 22 22 23 24 25 25
32 31 28 25 24 26 29 32 33 32 32 31 31 30 30 29 29 28 28 27 26 25 25 26 26 27 28 28 29 29 28 27 25 24 23 22 22 22 23 25 26 27
34 33 29 27 25 27 29 31 32 33 32 32 31 31 31 30 29 28 27 26 26 26 25 25 25 26 26 27 28 28 28 27 26 25 24 24 24 24 24 25 27 28
Wind_Direction
181 181 183 182 181 181 183 183 183 184 185 188 190 190 188 188 187 185 184 180 172 163 150 135 126 121 119 116 113 111 108 108 107 108 109 109 109 109 108 104 101 98
187 185 185 185 185 183 184 186 185 185 186 188 191 192 191 190 189 188 184 178 172 164 151 137 129 126 125 122 119 118 117 116 115 112 111 112 112 113 113 109 104 100
192 190 188 187 187 187 188 189 187 186 186 186 190 195 195 194 192 190 186 179 172 166 156 144 136 133 133 131 128 128 127 124 119 115 111 110 110 110 108 106 105 103
197 195 194 191 189 190 192 192 192 189 186 185 189 196 199 199 198 195 190 184 175 168 162 151 145 143 142 139 136 134 131 127 120 115 109 104 102 101 99 100 102 103
203 201 200 197 193 192 193 194 195 194 191 189 191 196 200 202 203 201 197 190 182 175 171 161 153 152 148 144 140 137 133 127 121 116 110 105 99 96 94 94 96 100
208 206 205 202 198 193 192 196 197 197 197 196 196 198 202 205 207 207 204 200 193 186 182 172 163 159 155 148 143 140 137 131 124 119 113 108 103 98 94 91 90 94
211 211 208 206 203 196 195 198 199 198 200 201 202 203 206 209 211 212 210 206 203 200 195 185 173 165 161 155 149 145 143 138 130 123 117 111 105 101 97 94 94 95
212 213 211 208 205 201 199 200 200 201 201 201 205 209 211 214 217 218 216 212 210 211 207 198 186 176 170 164 157 152 150 146 140 132 124 116 109 103 100 97 99 102
213 214 214 210 207 205 203 203 203 203 202 200 204 210 214 218 222 224 224 221 217 219 218 210 200 190 182 175 167 162 158 155 150 144 135 126 116 107 102 98 99 104
214 215 215 213 210 208 208 207 207 206 204 203 204 206 211 217 222 226 228 229 226 224 223 218 212 206 198 189 181 174 169 165 162 156 149 141 131 118 108 97 93 96
214 215 216 216 214 211 211 211 211 209 207 207 207 207 209 214 218 221 225 228 229 226 223 221 219 216 211 203 196 189 181 177 175 171 166 160 153 145 138 123 97 73
212 214 214 216 216 214 213 213 213 211 209 208 208 209 212 214 218 221 223 226 229 230 228 226 224 223 221 214 208 203 197 189 186 185 185 185 182 181 182 183 197 268
210 212 212 213 215 216 216 214 214 213 211 209 208 209 211 214 218 222 225 226 228 230 232 231 230 230 230 225 218 216 214 208 202 197 197 200 206 211 217 221 231 249
209 211 211 211 212 215 216 215 215 215 214 212 210 209 211 213 215 219 224 227 227 228 231 233 234 235 234 232 226 223 224 224 221 214 209 209 213 218 222 228 238 247
208 210 212 213 213 214 215 215 216 216 216 215 213 211 212 214 215 218 222 227 229 230 230 231 233 235 234 233 231 229 229 230 232 229 225 222 222 225 228 232 238 245
208 210 212 214 215 215 215 215 216 216 217 217 215 214 214 216 218 219 222 226 231 232 232 230 230 231 232 232 231 231 232 233 236 236 234 232 231 231 234 238 240 244
210 211 212 213 215 216 215 215 215 216 217 217 216 216 216 217 219 221 223 227 230 232 233 231 229 229 230 231 231 231 232 234 236 237 235 234 235 235 236 239 242 245
211 214 215 215 214 215 216 216 216 216 217 217 217 217 218 218 219 221 223 226 229 232 233 232 231 231 231 232 232 231 232 233 236 238 237 235 235 236 238 240 243 246
216 223 225 222 219 217 216 217 217 217 218 218 219 219 219 219 219 221 224 227 229 232 233 232 232 232 233 233 233 232 232 232 234 236 238 238 238 238 239 240 243 245
220 227 230 227 223 220 219 218 217 216 217 219 220 221 221 220 220 221 223 227 229 231 232 233 232 233 235 235 234 234 232 231 232 235 237 239 240 241 242 241 241 242
218 218 222 225 224 221 219 217 216 215 215 217 219 221 220 220 221 221 222 225 227 229 231 232 233 234 236 236 236 236 234 232 232 234 236 238 240 241 244 244 242 241
217 214 214 221 224 221 216 214 214 214 213 214 215 217 217 218 219 219 220 222 226 229 230 230 232 234 236 237 238 238 238 235 234 234 237 239 240 241 243 246 246 244
216 216 212 216 222 220 215 213 212 213 214 213 212 213 214 215 215 215 215 217 221 226 228 228 230 232 235 237 238 240 240 239 236 236 236 238 241 243 245 246 248 247
216 215 211 211 216 217 214 213 213 214 215 215 213 213 213 214 214 214 214 215 217 221 226 228 229 230 232 234 236 239 241 241 239 238 237 237 240 243 246 248 248 247
218 214 210 208 212 214 213 213 213 214 216 217 216 216 216 216 218 218 216 216 216 218 223 227 230 231 233 234 236 238 241 242 241 240 238 237 238 240 243 246 248 249
213 209 207 207 210 214 214 213 213 214 216 219 220 220 220 220 221 221 220 219 217 218 221 226 229 232 234 235 236 238 240 241 242 241 239 237 237 237 239 244 247 249